Weather History for Stanley, ND

Change the Weather History Date:

Tuesday, November 27, 2012

  Actual Average (KMOT) Record (KMOT)
Temperature  
Mean Temperature 19 °F 22 °F  
Max Temperature 24 °F 30 °F 68 °F (1949)
Min Temperature 14 °F 14 °F -18 °F (2014)
Degree Days  
Heating Degree Days 46 43  
Month to date heating degree days 966  
Since 1 July heating degree days 1926  
Moisture  
Dew Point 20 °F    
Average Humidity 100    
Maximum Humidity 100    
Minimum Humidity 100    
Precipitation  
Precipitation 0.00 in 0.02 in 0.17 in (1964)
Month to date precipitation 0.70  
Year to date precipitation 16.76  
Sea Level Pressure  
Sea Level Pressure 30.11 in    
Wind  
Wind Speed 5 mph (WNW)    
Max Wind Speed 12 mph    
Max Gust Speed -    
Visibility 6 miles    
Events Fog , Snow    
T = Trace of Precipitation, MM = Missing Value Source: NWS Daily Summary

Daily Weather History Graph

Daily Weather History Graph

Search for Another Location

Airport:

Trip Planner

Search our weather history database for the weather conditions in past years. The results will help you decide how hot, cold, wet, or windy it might be!

Date:

Astronomy

Nov. 27, 2012 Rise Set
Actual Time 8:15 AM CST 4:59 PM CST
Civil Twilight 7:39 AM CST 5:34 PM CST
Nautical Twilight 7:00 AM CST 6:13 PM CST
Astronomical Twilight 6:23 AM CST 6:51 PM CST
Moon 4:33 PM CST (11/27) 7:20 AM CST (11/27)
Length of Visible Light 9h 55m
Length of Day
8h 44m
Waxing Gibbous, 99% of the Moon is Illuminated
Nov 27
Waxing Gibbous
Nov 28
Full
Dec 6
Last Quarter
Dec 13
New
Dec 19
First Quarter

Hourly Weather History & Observations

Time (CST) Temp. Windchill Dew Point Humidity Pressure Visibility Wind Dir Wind Speed Gust Speed Precip Events Conditions
12:15 AM 23.0 °F 17.0 °F 23.0 °F 100% 30.08 in 0.2 mi WNW 4.6 mph - N/A Fog Light Freezing Fog
12:35 AM 23.0 °F 14.7 °F 23.0 °F 100% 30.08 in 0.5 mi WNW 6.9 mph - N/A Fog Light Freezing Fog
12:55 AM 23.0 °F 13.9 °F 23.0 °F 100% 30.08 in 0.8 mi NW 8.1 mph - N/A   Overcast
1:15 AM 21.2 °F 13.6 °F 21.2 °F 100% 30.08 in 0.8 mi NW 5.8 mph - N/A   Overcast
1:35 AM 19.4 °F - 19.4 °F 100% 30.07 in 0.5 mi Calm Calm - N/A Fog Light Freezing Fog
1:55 AM 19.4 °F 14.3 °F 19.4 °F 100% 30.06 in 0.2 mi WNW 3.5 mph - N/A Fog Light Freezing Fog
2:15 AM 19.4 °F 14.3 °F 19.4 °F 100% 30.06 in 0.2 mi WNW 3.5 mph - N/A Fog Light Freezing Fog
2:35 AM 17.6 °F 10.7 °F 17.6 °F 100% 30.06 in 0.5 mi West 4.6 mph - N/A Fog Light Freezing Fog
2:55 AM 17.6 °F 8.2 °F 17.6 °F 100% 30.06 in 0.2 mi West 6.9 mph - N/A Fog Light Freezing Fog
3:15 AM 17.6 °F 8.2 °F 17.6 °F 100% 30.06 in 0.2 mi West 6.9 mph - N/A Fog Light Freezing Fog
3:35 AM 15.8 °F - 15.8 °F 100% 30.05 in 0.2 mi Calm Calm - N/A Fog Light Freezing Fog
3:55 AM 15.8 °F 10.2 °F 15.8 °F 100% 30.05 in 0.5 mi NW 3.5 mph - N/A Fog Light Freezing Fog
4:35 AM 14.0 °F 6.5 °F 14.0 °F 100% 30.06 in 0.8 mi North 4.6 mph - N/A   Overcast
4:55 AM 14.0 °F - 14.0 °F 100% 30.05 in 0.2 mi Calm Calm - N/A Fog Light Freezing Fog
5:15 AM 14.0 °F 6.5 °F 14.0 °F 100% 30.05 in 0.2 mi West 4.6 mph - N/A Fog Light Freezing Fog
5:55 AM 15.8 °F 10.2 °F 15.8 °F 100% 30.05 in 0.2 mi West 3.5 mph - N/A Fog Light Freezing Fog
6:15 AM 14.0 °F 6.5 °F 14.0 °F 100% 30.05 in 0.8 mi WSW 4.6 mph - N/A   Overcast
6:35 AM 14.0 °F - 14.0 °F 100% 30.05 in 1.2 mi Calm Calm - N/A   Overcast
6:55 AM 15.8 °F 8.6 °F 15.8 °F 100% 30.06 in 0.5 mi West 4.6 mph - N/A Fog Light Freezing Fog
7:15 AM 14.0 °F 8.2 °F 14.0 °F 100% 30.06 in 0.5 mi West 3.5 mph - N/A Fog Light Freezing Fog
7:35 AM 14.0 °F 5.1 °F 14.0 °F 100% 30.06 in 1.2 mi West 5.8 mph - N/A   Overcast
7:55 AM 15.8 °F - 15.8 °F 100% 30.06 in 3.0 mi Calm Calm - N/A   Overcast
8:15 AM 15.8 °F 7.2 °F 15.8 °F 100% 30.06 in 3.0 mi West 5.8 mph - N/A   Overcast
8:35 AM 15.8 °F 8.6 °F 15.8 °F 100% 30.07 in 0.2 mi WSW 4.6 mph - N/A Fog Light Freezing Fog
8:55 AM 15.8 °F 7.2 °F 15.8 °F 100% 30.07 in 0.2 mi WSW 5.8 mph - N/A Fog Light Freezing Fog
9:15 AM 15.8 °F 6.1 °F 15.8 °F 100% 30.07 in 0.2 mi West 6.9 mph - N/A Fog Light Freezing Fog
9:35 AM 17.6 °F 9.3 °F 17.6 °F 100% 30.08 in 0.5 mi West 5.8 mph - N/A Fog Light Freezing Fog
9:55 AM 17.6 °F 10.7 °F 17.6 °F 100% 30.09 in 3.0 mi West 4.6 mph - N/A   Overcast
10:15 AM 17.6 °F 9.3 °F 17.6 °F 100% 30.10 in 8.0 mi NNW 5.8 mph - N/A   Overcast
10:35 AM 17.6 °F 10.7 °F 17.6 °F 100% 30.09 in 10.0 mi West 4.6 mph - N/A Snow Light Snow
10:55 AM 19.4 °F - 19.4 °F 100% 30.10 in 10.0 mi Calm Calm - N/A   Overcast
11:15 AM 19.4 °F 10.4 °F 19.4 °F 100% 30.10 in 10.0 mi West 6.9 mph - N/A   Mostly Cloudy
11:35 AM 21.2 °F 12.6 °F 21.2 °F 100% 30.11 in 10.0 mi NW 6.9 mph - N/A   Overcast
11:55 AM 19.4 °F 10.4 °F 19.4 °F 100% 30.11 in 10.0 mi NNW 6.9 mph - N/A   Overcast
12:15 PM 21.2 °F 12.6 °F 21.2 °F 100% 30.11 in 10.0 mi WNW 6.9 mph - N/A   Overcast
12:35 PM 23.0 °F 13.1 °F 23.0 °F 100% 30.11 in 10.0 mi WNW 9.2 mph - N/A   Overcast
12:55 PM 23.0 °F 12.4 °F 23.0 °F 100% 30.10 in 10.0 mi WNW 10.4 mph - N/A   Overcast
1:15 PM 24.8 °F 16.1 °F 24.8 °F 100% 30.11 in 10.0 mi NW 8.1 mph - N/A   Overcast
1:35 PM 24.8 °F 15.3 °F 24.8 °F 100% 30.10 in 10.0 mi WNW 9.2 mph - N/A   Overcast
1:55 PM 23.0 °F 12.4 °F 23.0 °F 100% 30.10 in 10.0 mi NW 10.4 mph - N/A   Overcast
2:15 PM 23.0 °F 13.9 °F 23.0 °F 100% 30.10 in 10.0 mi NW 8.1 mph - N/A   Overcast
2:35 PM 23.0 °F 11.7 °F 23.0 °F 100% 30.11 in 10.0 mi WNW 11.5 mph - N/A   Overcast
2:55 PM 23.0 °F 13.9 °F 23.0 °F 100% 30.11 in 10.0 mi NW 8.1 mph - N/A   Overcast
3:15 PM 23.0 °F 12.4 °F 23.0 °F 100% 30.11 in 10.0 mi NW 10.4 mph - N/A   Overcast
3:35 PM 23.0 °F 11.7 °F 23.0 °F 100% 30.11 in 10.0 mi NW 11.5 mph - N/A   Overcast
3:55 PM 23.0 °F 13.1 °F 23.0 °F 100% 30.13 in 10.0 mi NNW 9.2 mph - N/A   Overcast
4:15 PM 23.0 °F 13.9 °F 23.0 °F 100% 30.14 in 10.0 mi WNW 8.1 mph - N/A   Overcast
4:35 PM 23.0 °F 14.7 °F 23.0 °F 100% 30.14 in 10.0 mi WNW 6.9 mph - N/A   Overcast
4:55 PM 23.0 °F 15.8 °F 23.0 °F 100% 30.15 in 10.0 mi NW 5.8 mph - N/A   Overcast
5:15 PM 23.0 °F 13.9 °F 23.0 °F 100% 30.15 in 10.0 mi NW 8.1 mph - N/A Snow Light Snow
5:55 PM 23.0 °F 14.7 °F 23.0 °F 100% 30.15 in 10.0 mi WNW 6.9 mph - N/A   Overcast
6:15 PM 23.0 °F 15.8 °F 23.0 °F 100% 30.16 in 10.0 mi WNW 5.8 mph - N/A   Overcast
6:35 PM 21.2 °F 12.6 °F 21.2 °F 100% 30.16 in 10.0 mi WNW 6.9 mph - N/A   Overcast
6:55 PM 21.2 °F 11.7 °F 21.2 °F 100% 30.16 in 10.0 mi NW 8.1 mph - N/A   Overcast
7:15 PM 21.2 °F 10.1 °F 21.2 °F 100% 30.17 in 10.0 mi NW 10.4 mph - N/A   Overcast
7:35 PM 21.2 °F 13.6 °F 21.2 °F 100% 30.17 in 10.0 mi NW 5.8 mph - N/A   Overcast
7:55 PM 21.2 °F 12.6 °F 21.2 °F 100% 30.16 in 10.0 mi NW 6.9 mph - N/A   Overcast
8:15 PM 23.0 °F 14.7 °F 23.0 °F 100% 30.16 in 10.0 mi WNW 6.9 mph - N/A   Overcast
8:35 PM 21.2 °F 16.4 °F 21.2 °F 100% 30.17 in 10.0 mi West 3.5 mph - N/A   Overcast
8:55 PM 21.2 °F 13.6 °F 21.2 °F 100% 30.17 in 10.0 mi West 5.8 mph - N/A   Overcast
9:15 PM 21.2 °F 13.6 °F 21.2 °F 100% 30.17 in 10.0 mi WSW 5.8 mph - N/A   Overcast
9:35 PM 21.2 °F 13.6 °F 21.2 °F 100% 30.18 in 10.0 mi West 5.8 mph - N/A   Overcast
9:55 PM 21.2 °F - 21.2 °F 100% 30.17 in 10.0 mi Calm Calm - N/A   Overcast
10:15 PM 21.2 °F 14.9 °F 21.2 °F 100% 30.17 in 10.0 mi NW 4.6 mph - N/A   Overcast
10:55 PM 21.2 °F 13.6 °F 21.2 °F 100% 30.16 in 8.0 mi WSW 5.8 mph - N/A   Overcast
11:15 PM 19.4 °F 11.5 °F 19.4 °F 100% 30.16 in 5.0 mi West 5.8 mph - N/A   Overcast
11:55 PM 19.4 °F 12.8 °F 19.4 °F 100% 30.15 in 0.8 mi WSW 4.6 mph - N/A   Overcast